Weather in Chaykovskaya

Russia / Perm Krai     58°07′55″N   55°31′55″E
temp.,
°C
wind,
m/s
gust,
m/s
humid.,
%
clouds,
%
prec.,
mm/h
press.,
hPa
HPBL,
m
6 august, fri
fri623:00+15n298454 0.0 1013289
02:00+13nnw28902 0.0 1013191
05:00+11nnw39976 0.0 1014213
08:00+13nnw410682 0.0 1016383
11:00+18nnw574999 0.0 10151232
14:00+20nnw57435 0.0 10151532
17:00+20nnw57423 0.0 10151724
20:00+17nnw37620 0.0 1016263
7 august, sat
sat723:00+12nw23810 0.0 101741
02:00+10nnw27872 0.0 1017129
05:00+8nnw25893 0.0 1018106
08:00+12nnw497619 0.0 1018392
11:00+16nnw475814 0.0 10181278
14:00+19nnw574639 0.0 10171708
17:00+20nnw574413 0.0 10171940
20:00+17nnw376314 0.0 1018240
8 august, sun
sun823:00+12n2284100 0.0 101925
02:00+10nnw310891 0.0 1020274
05:00+9nnw311900 0.0 1021296
08:00+12nnw410751 0.0 1021409
11:00+17nnw465639 0.0 1021821
14:00+21nnw45475 0.0 10211253
17:00+21nnw454410 0.0 10211386
20:00+17nnw24655 0.0 102190
9 august, mon
mon923:00+12n2276100 0.0 102235
02:00+11n23766 0.0 102339
05:00+10n228414 0.0 102341
08:00+14n1277100 0.0 1023159
11:00+17nw2363100 0.0 1023606
14:00+16wnw2368100 0.0 1023290
17:00+18nw2361100 0.0 1022466
20:00+16n117513 0.0 102111
10 august, tue
tue1023:00+12e1186100 0.0 102110
02:00+13s118399 0.1 102018
05:00+12ese119384 0.4 102012
08:00+14ese13864 0.1 1019154
11:00+20ese226152 0.1 1018625
14:00+22ne225789 0.0 10181176
17:00+20nne356991 0.0 1018359
20:00+18nne37752 0.0 1018280